{"data":{"norad_id":63385,"epoch":"2026-09-20T15:21:56.962368Z","epoch_age_seconds":146702,"freshness":"FRESH","line1":"1 63385U 25063Y   26263.64024262  .00009259  00000+0  28483-3 0  9998","line2":"2 63385  53.1594 235.0112 0001466  94.0838 266.0332 15.34399176 84447","mean_motion":15.34399176,"eccentricity":0.0001466,"inclination_deg":53.1594,"raan_deg":235.0112,"arg_perigee_deg":94.0838,"mean_anomaly_deg":266.0332,"bstar":0.00028483,"rev_number":8444,"period_min":93.847808479272,"perigee_km":461.7028217716,"apogee_km":463.7085568481,"semimajor_km":6840.8426893099,"source":"CELESTRAK","updated_at":"2026-09-21T09:00:34.976464Z"}}